Flight Track Log - Related Links

Times and Time Zones

All times are in EDT time to prevent confusion due to time zone crossing. See the RPA3436 flight status page for this flight to view local times or setup timezone preferences in your user account.

Time Position Orientation Groundspeed Altitude Reporting Facility
EDT Latitude Longitude Course Direction KTS MPH feet Rate Location/Type
Tue 10:40:34 AM 38.9000 -77.0667 83° East 174 200 2,100  Level Potomac TRACON
Tue 10:42:00 AM 39.0385 -76.5038 63° Northeast  Level FlightAware Approximate
Tue 10:42:08 AM 38.9678 -77.1533 315° West 220 253 5,900  Level Washington Center
Tue 10:43:00 AM 39.0929 -76.3723 61° Northeast  Level FlightAware Approximate
Tue 10:43:06 AM 39.0208 -77.0931 41° Northeast 194 223 9,200  Level Washington Center
Tue 10:44:00 AM 39.1316 -76.2368 57° Northeast  Level FlightAware Approximate
Tue 10:44:06 AM 39.0367 -76.9786 80° East 226 260 12,200  Level Washington Center
Tue 10:45:00 AM 39.1617 -76.0998 83° East  Level FlightAware Approximate
Tue 10:45:07 AM 39.0547 -76.8639 79° East 282 325 15,000  Level Washington Center
Tue 10:46:05 AM 39.0725 -76.7439 79° East 307 353 17,100 2,017 Climbing Washington Center
Tue 10:47:06 AM 39.0925 -76.6133 79° East 340 391 19,000 1,686 Climbing Washington Center
Tue 10:48:06 AM 39.1122 -76.4744 80° East 372 428 20,500 1,537 Climbing Washington Center
Tue 10:49:07 AM 39.1342 -76.3275 79° East 393 452 22,100 1,250 Climbing Washington Center
Tue 10:50:06 AM 39.1558 -76.1725 80° East 420 483 23,000 454 Climbing Washington Center
Tue 10:51:06 AM 39.1753 -76.0172 81° East 432 497 23,000 446 Level Washington Center
Tue 10:52:07 AM 39.2047 -75.8700 75° East 432 497 23,900 1,180 Climbing Washington Center
Tue 10:53:08 AM 39.2864 -75.7553 47° Northeast 410 472 25,400 1,462 Climbing Washington Center
Tue 10:54:06 AM 39.3739 -75.6453 44° Northeast 418 481 26,800 1,373 Climbing Washington Center
Tue 10:55:06 AM 39.4636 -75.5325 44° Northeast 424 488 28,100 1,100 Climbing Washington Center
Tue 10:56:06 AM 39.5508 -75.4167 46° Northeast 437 503 29,000 446 Climbing Washington Center
Tue 10:57:07 AM 39.6403 -75.2978 46° Northeast 442 509 29,000  Level Washington Center
Tue 10:58:08 AM 39.7275 -75.1786 46° Northeast 442 509 29,000  Level Washington Center
Tue 10:59:29 AM 39.8347 -75.0206 49° Northeast 453 521 29,000  Level New York Center
Tue 11:00:29 AM 39.9203 -74.9011 47° Northeast 453 521 29,000 198 Level New York Center
Tue 11:01:30 AM 40.0125 -74.7683 48° Northeast 453 521 29,400 915 Climbing New York Center
Tue 11:02:27 AM 40.0978 -74.6486 47° Northeast 453 521 30,800 814 Climbing New York Center
Tue 11:03:28 AM 40.1908 -74.5450 40° Northeast 438 504 31,000 99 Climbing New York Center
Tue 11:04:28 AM 40.2753 -74.4464 42° Northeast 432 497 31,000  Level New York Center
Tue 11:05:29 AM 40.3681 -74.3422 41° Northeast 432 497 31,000  Level New York Center
Tue 11:06:29 AM 40.4586 -74.2406 40° Northeast 432 497 31,000 -843 Level New York Center
Tue 11:07:30 AM 40.5489 -74.1386 41° Northeast 427 491 29,300 -1,983 Descending New York Center
Tue 11:08:27 AM 40.6353 -74.0389 41° Northeast 417 480 27,100 -1,395 Descending New York Center
Tue 11:11:18 AM 40.8564 -73.7847 41° Northeast 377 434 24,000 -864 Descending Boston Center
Tue 11:12:30 AM 40.9494 -73.6658 44° Northeast 370 426 23,600 -455 Descending Boston Center
Tue 11:13:30 AM 41.0444 -73.5575 41° Northeast 370 426 23,000 -600 Descending Boston Center
Tue 11:14:30 AM 41.1306 -73.4844 33° Northeast 370 426 22,400 -850 Descending Boston Center
Tue 11:15:30 AM 41.2228 -73.4225 27° Northeast 365 420 21,300 -1,250 Descending Boston Center
Tue 11:16:30 AM 41.3169 -73.3908 14° North 345 397 19,900 -1,600 Descending Boston Center
Tue 11:17:30 AM 41.4083 -73.4225 345° North 328 377 18,100 -950 Descending Boston Center
Tue 11:18:30 AM 41.5042 -73.4353 354° North 334 384 18,000 -50 Descending Boston Center
Tue 11:19:30 AM 41.5872 -73.4531 351° North 334 384 18,000  Level Boston Center
Tue 11:20:30 AM 41.6808 -73.4658 354° North 334 384 18,000 -750 Level Boston Center
Tue 11:21:30 AM 41.7767 -73.4811 353° North 334 384 16,500 -1,700 Descending Boston Center
Tue 11:22:30 AM 41.8703 -73.4939 354° North 334 384 14,600 -1,941 Descending Boston Center
Tue 11:23:12 AM 41.9411 -73.5033 354° North 327 376 13,200 -1,842 Descending Boston Center
Tue 11:24:24 AM 42.0492 -73.5192 354° North 319 367 11,100 -1,538 Descending Boston Center
Tue 11:24:30 AM 42.0492 -73.5192 354° North 329 379 11,200 -98 Climbing Boston Center
Tue 11:25:25 AM 42.1367 -73.5264 356° North 317 365 11,000 -200 Descending Boston Center
Tue 11:26:30 AM 42.2133 -73.5753 335° Northwest 309 356 10,800 -893 Descending Boston Center
Tue 11:27:26 AM 42.2858 -73.6244 333° Northwest 285 328 9,200 -1,805 Descending Boston Center
Tue 11:28:33 AM 42.3708 -73.6767 336° Northwest 284 327 7,100 -1,574 Descending Boston Center
Tue 11:29:28 AM 42.4308 -73.7172 333° Northwest 273 314 6,000 -1,043 Descending Boston Center
Tue 11:30:28 AM 42.4928 -73.7550 336° Northwest 239 275 5,100 -1,041 Descending Boston Center
Tue 11:31:29 AM 42.5486 -73.7956 332° Northwest 224 258 3,900 -1,140 Descending Boston Center
Tue 11:32:29 AM 42.6047 -73.8025 355° North 206 237 2,800 -1,100 Descending Boston Center

Login

Don't have an account? Register now (free) for customized features, flight alerts, and more!